TimeEDT,TemperatureF,Dew PointF,Humidity,Sea Level PressureIn,VisibilityMPH,Wind Direction,Wind SpeedMPH,Gust SpeedMPH,PrecipitationIn,Events,Conditions,WindDirDegrees,DateUTC
12:53 AM,71.1,64.9,81,30.07,10.0,South,4.6,-,N/A,,Clear,180,2013-06-23 04:53:00
1:53 AM,70.0,64.9,84,30.06,10.0,Calm,Calm,-,N/A,,Clear,0,2013-06-23 05:53:00
2:53 AM,69.1,64.0,84,30.05,9.0,Calm,Calm,-,N/A,,Clear,0,2013-06-23 06:53:00
3:53 AM,70.0,64.0,81,30.05,10.0,SSW,4.6,-,N/A,,Clear,200,2013-06-23 07:53:00
4:53 AM,69.1,64.0,84,30.06,10.0,South,3.5,-,N/A,,Clear,180,2013-06-23 08:53:00
5:53 AM,66.9,64.0,90,30.10,6.0,Calm,Calm,-,N/A,,Partly Cloudy,0,2013-06-23 09:53:00
6:53 AM,66.9,64.0,90,30.10,5.0,South,3.5,-,N/A,,Clear,170,2013-06-23 10:53:00
7:53 AM,70.0,64.9,84,30.10,7.0,South,3.5,-,N/A,,Clear,190,2013-06-23 11:53:00
8:53 AM,75.0,66.0,73,30.11,9.0,SSW,5.8,-,N/A,,Clear,200,2013-06-23 12:53:00
9:53 AM,77.0,66.9,71,30.10,9.0,South,8.1,-,N/A,,Clear,190,2013-06-23 13:53:00
10:53 AM,80.1,66.0,62,30.06,10.0,South,10.4,-,N/A,,Clear,190,2013-06-23 14:53:00
11:53 AM,82.9,68.0,60,30.06,10.0,SSW,12.7,-,N/A,,Clear,200,2013-06-23 15:53:00
12:53 PM,84.9,66.9,55,30.06,10.0,SSW,13.8,23.0,N/A,,Mostly Cloudy,210,2013-06-23 16:53:00
1:53 PM,86.0,66.0,51,30.06,10.0,WSW,11.5,20.7,N/A,,Partly Cloudy,240,2013-06-23 17:53:00
2:53 PM,84.9,66.9,55,30.06,10.0,WSW,10.4,16.1,N/A,,Scattered Clouds,250,2013-06-23 18:53:00
3:53 PM,84.9,64.9,51,30.03,10.0,SW,11.5,-,N/A,,Mostly Cloudy,230,2013-06-23 19:53:00
4:53 PM,82.9,66.0,56,30.02,6.0,SSW,16.1,41.4,0.01,Rain,Light Rain,210,2013-06-23 20:53:00
4:55 PM,80.6,66.2,61,30.09,1.0,South,29.9,47.2,0.13,Rain,Light Rain,180,2013-06-23 20:55:00
5:02 PM,71.6,64.4,78,30.08,0.2,NNE,13.8,47.2,0.40,Rain,Heavy Rain,20,2013-06-23 21:02:00
5:08 PM,73.4,62.6,69,30.05,1.0,North,12.7,21.9,0.41,Rain,Rain,10,2013-06-23 21:08:00
5:11 PM,73.4,64.4,73,30.05,3.0,North,6.9,21.9,0.41,Rain,Light Rain,360,2013-06-23 21:11:00
5:53 PM,73.0,64.9,76,30.07,10.0,SSW,12.7,18.4,0.44,,Mostly Cloudy,210,2013-06-23 21:53:00
6:53 PM,71.1,64.9,81,30.05,5.0,Calm,Calm,-,0.01,Rain,Light Rain,0,2013-06-23 22:53:00
7:53 PM,72.0,66.9,84,30.04,10.0,Calm,Calm,-,0.01,,Clear,0,2013-06-23 23:53:00
8:53 PM,71.1,64.9,81,30.05,10.0,South,6.9,-,N/A,,Clear,180,2013-06-24 00:53:00
9:53 PM,71.1,66.9,87,30.05,8.0,SSW,4.6,-,N/A,,Clear,200,2013-06-24 01:53:00
10:53 PM,71.1,66.9,87,30.07,7.0,South,3.5,-,N/A,,Clear,170,2013-06-24 02:53:00
11:53 PM,70.0,66.9,90,30.07,6.0,South,4.6,-,N/A,,Clear,180,2013-06-24 03:53:00